Location: *
(37.5724°S, 58.0067°E)
Time: 10:35:26
(UTC+00:00)

Cosmos 2056 Rocket - Pass Details

Date: 26 September 2020
Orbit: 743 x 799 km, 74.0° (Epoch: 29 October)

Event Time Altitude Azimuth Distance (km) Brightness Sun altitude
Rises 16:21:26 0° 204° (SSW) 3,327 7.5 -26.4°
Reaches altitude 10° 16:23:54 10° 208° (SSW) 2,395 6.7 -26.8°
Maximum altitude 16:29:12 53° 283° (WNW) 989 4.2 -27.7°
Enters shadow 16:30:38 41° 330° (NNW) 1,151 4.3 -28.0°
